Погода в Ореле

Хотите узнать прогноз погоды в Ореле? Тогда Вам сюда: Погода в Ореле

Поиск расширенной информации на нашем сайте:

Полезная информация:

Новости сайта



02.01.2020
Опубликован Долгосрочный прогноз погоды по городам России и ближнего зарубежья на январь 2020 года.
Карты: Прогноз на январь и февраль 2020 года, Сравнение прогнозируемой аномалии приземной температуры воздуха на январь 2020 года по разным моделям.




Погода в Ореле - сегодня

Время (UTC), дата Ветер
(°,м/с) 
Видим.   Явления Облачность Т
(°С)
Тd
(°С)
f(%) Тe
(°С)
Pmin
(гПа)
dP
(гПа)
Po
(мм)
O2
(г/м3)
Тmin Tmax R s Состояние
почвы
12 03.03.21 300 (СЗ) 10 км    ясно 
+4.4 -6.3 46 +3  1019  -0.9  746  297           
15 03.03.21 260 (З) 10 км    ясно 
+2.4 -4.7 59 +2  1017.9  -1.2  745  298           
18 03.03.21 270 (З) 10 км    ясно 
+0.3 -4 73 1017.3  -0.8  745  300    +4.7       
21 03.03.21 260 (З) 10 км    ясно 
-1.6 -4.7 79 -3  1016.1  -1.3  744  302           
00 04.03.21 250 (З) 10 км    9/0 средняя 
[Ac trans]
-1 -4.1 79 -3  1013.9  -2.1  742  301           
03 04.03.21 230 (ЮЗ) 10 км    4/0 средняя 
[Ac trans]
-1.8 -4.6 81 -3  1011.4  -2.5  740  301  -1.8         
06 04.03.21 220 (ЮЗ) 10 км    ясно 
-1.3 -4.3 80 -2  1008.2  -3  738  299  -2.5      19  равномерный
мокрый или
старый снег
100% 
09 04.03.21 280 (З) 10 км    8/8 600 м кучево-дожд. 
[Cb calv]
+1.5 -3.5 69 -1  1005.5  -2.4  736  295           
12 04.03.21 270 (З) 10 км    10/10 600 м кучево-дожд. 
[Cb calv]
-0.7 -3.8 79 -3  1004.9  -0.8  736  298           
15 04.03.21 280 (З) 10 км    9/8 600 м средняя 
[Sc|Ac trans]
-0.4 -3.9 77 1003.7  -1.1  735  297           
18 04.03.21 250 (З) 10 км    10/10 600 м 
[Sc]
-0.5 -3.9 78 1003.2  -0.5  734  297    +2.1       
21 04.03.21 290 (З) 10 км    10/10 600 м 
[Sc]
-0.3 -3.2 81 -2  1003.5  -0.5  735  297           
00 05.03.21 290 (З) 10 км    10/10 600 м 
[Sc]
-0.4 -2.8 84 -2  1004.6  1.1  735  297           
03 05.03.21 340 (С) 10 км  {ливн. осадки}  8/8 600 м кучево-дожд. 
[Cb calv]
-2 -4.2 85 -1  1007  2.2  737  300  -2    0.0     
06 05.03.21 320 (СЗ) 10 км  {ливн. осадки}  8/4 600 м кучево-дожд., средняя, верхняя 
[Cb calv|Ac trans|Ci fib]
-1.2 -4.7 77 -1  1008.9  1.9  739  299  -4.3    0.0  19  равномерный
сухой снег
100% 
09 05.03.21 330 (СЗ) 10 км    9/5 600 м кучево-дожд., средняя 
[Cb calv|Ac trans]
+1 -6.2 59 1010.4  1.6  740  298           
12 05.03.21 300 (СЗ) 10 км    5/3 600 м кучево-дожд., средняя, верхняя 
[Cb calv|Ac trans|Ci fib]
+0.7 -7.4 55 1011.3  0.9  740  298           
15 05.03.21 280 (З) 10 км    9/3 600 м кучево-дожд., верхняя 
[Cb calv|Ci fib]
-1.2 -6.9 65 -1  1012.7  1.1  741  301           
18 05.03.21 300 (СЗ) 10 км    8/3 600 м верхняя 
[Sc|Ci fib]
-4.6 -8.4 75 -4  1014.7  1.7  743  305    +1.8       
21 05.03.21 тихо ()   10 км    8/4 600 м средняя 
[Sc|Ac trans]
-5.8 -9.3 76 -6  1015.8  743  307           
00 06.03.21 тихо ()   10 км    8/4 600 м средняя 
[Sc|Ac trans]
-7.1 -9.6 82 -7  1016.7  0.7  744  309           
03 06.03.21 тихо ()   10 км    3/0 средняя 
[Ac trans]
-8.6 -10.2 88 -9  1017.5  0.6  744  311  -8.6         
06 06.03.21 330 (СЗ) 10 км    1/1 300 м 
[St]
-6.6 -9 83 -8  1018.5  1.2  745  309  -9.9      19  равномерный
мокрый или
старый снег
100% 
09 06.03.21 310 (СЗ) 10 км    3/1 600 м средняя 
[Sc|Ac trans]
-3.3 -9.1 64 -4  1019.1  0.8  746  305           
12 06.03.21 330 (СЗ) 10 км    5/5 600 м кучево-дожд. 
[Cb calv]
-1.6 -10.4 51 -1  1018.4  -0.5  745  303           
Время (UTC), дата Ветер
(°,м/с) 
Видим.   Явления Облачность Т
(°С)
Тd
(°С)
f(%) Тe
(°С)
Pmin
(гПа)
dP
(гПа)
Po
(мм)
O2
(г/м3)
Тmin Tmax R s Состояние
почвы

Для получения пояснительной информации подведите курсор к названию столбца.

ПОГОДА в Ореле - архив

Всё, что Вы хотите узнать о погоде в Ореле - удобно и подробно!

Выберите нужную дату (начиная с 1 января 2019* года) и нажмите кнопку "Найти".
Будут отображены архивные сводки погоды по пункту Орел, начиная с указанной даты.


Отображать данные в формате CSV (для использования в таблицах Excel)


Внимание! Наш архив погоды предназначен исключительно для личного некоммерческого использования в познавательных целях. Если Вам необходимы официальные справки о состоянии погоды (для производственных, юридических, коммерческих и т.п. целей), обращайтесь в органы Росгидромета.

*Примечание: данная дата относится к архиву по метеостанциям СССР (Россия, СНГ, Балтия).
Архив по метеостанциям Зарубежной Европы и Азии (кроме Китая) хранится 10 дней, по другим регионам земного шара (Китай, Африка, Америка, Австралия, Океания) - 1 день.

Орел - район местоположения метеостанции


Название, широта, долгота, высота метеостанции:
Орел 52.9°ш. 36°д. 196 м над ур. моря [Российская Федерация]

Дополнительная информация

В oтличие oт бoльшинства пoгoдных сайтoв мы публикуем пoдрoбную метеoинфoрмацию в детальнoм прoфессиoнальнoм фoрмате.

Характеристики температуры и влажнoсти вoздуха измеряются на высoте 2 м в тени вдали oт зданий и деревьев.
Скoрoсть ветра измеряется на высoте 10 м (на урoвне рoста челoвека скoрoсть ветра ниже в 1.5-2 раза). Если метеoстанция нахoдится в гoрoде или в лесу, тo скoрoсть ветра занижена на 2-4 м/с пo сравнению с oткрытым местoм. Скoрoсть ветра над акватoриями крупных рек и oзёр, а также на вершинах хoлмoв на 2-5 м/с выше, чем в oбычных услoвиях.
Атмoсфернoе давление в разных тoчках местнoсти мoжет значительнo oтличаться oт давления на метеoстанции, в зависимoсти oт услoвий рельефа (при пoдъёме на 10 м давление пoнижается примернo на 1 мм рт.ст.).